TKJ60J EDDF-LTFJ

Flight info

Callsign TKJ60J
Flight time N/A
Altitude 31000
Route CINDY6F/25C CINDY Z74 HAREM DCT ASLEP DCT TAKUT DCT DINKU L603 BESNI/N0460F350 L605 MIQ DCT ALUTU/N0459F370 DCT BIBAG L605 ESEGA DCT LIMRA DCT NURMI DCT GOTAR DCT BABIT DCT KOTUS DCT ETIDA DCT BUFRA DCT GERGI L614 ADORU UM19 IBODU
Aircraft B38M/M-SDE1FGHILORVWXY/HB1

Departure

Time 2026-05-07 07:34
Airport Frankfurt Main Airport (EDDF)

Arrival

Time N/A
Airport Istanbul Sabiha Gökçen International Airport (LTFJ)
Time Latitude Longitude Altitude Speed Heading
2026-05-07 07:14 50.05010 8.57519 358 ft 0 kts 21°
2026-05-07 07:25 50.05003 8.57515 363 ft 4 kts 20°
2026-05-07 07:25 50.04978 8.57509 358 ft 4 kts 349°
2026-05-07 07:26 50.04958 8.57518 358 ft 4 kts 358°
2026-05-07 07:26 50.04943 8.57507 358 ft 4 kts 79°
2026-05-07 07:26 50.04945 8.57471 358 ft 3 kts 108°
2026-05-07 07:26 50.04940 8.57494 364 ft 4 kts 108°
2026-05-07 07:27 50.04931 8.57534 361 ft 4 kts 110°
2026-05-07 07:27 50.04921 8.57573 361 ft 4 kts 112°
2026-05-07 07:27 50.04910 8.57612 364 ft 4 kts 114°
2026-05-07 07:27 50.04908 8.57620 362 ft 1 kts 114°
2026-05-07 07:29 50.04907 8.57623 362 ft 1 kts 114°
2026-05-07 07:29 50.04891 8.57679 361 ft 11 kts 112°
2026-05-07 07:30 50.04856 8.57809 363 ft 14 kts 112°
2026-05-07 07:30 50.04787 8.57914 360 ft 15 kts 160°
2026-05-07 07:30 50.04700 8.57965 363 ft 11 kts 159°
2026-05-07 07:30 50.04650 8.57994 363 ft 0 kts 160°
2026-05-07 07:31 50.04649 8.57994 363 ft 0 kts 160°
2026-05-07 07:31 50.04644 8.57997 362 ft 3 kts 160°
2026-05-07 07:31 50.04600 8.58022 367 ft 10 kts 160°
2026-05-07 07:31 50.04535 8.58061 366 ft 9 kts 159°
2026-05-07 07:32 50.04481 8.58093 367 ft 9 kts 159°
2026-05-07 07:32 50.04402 8.58121 375 ft 12 kts 194°
2026-05-07 07:32 50.04360 8.58053 371 ft 0 kts 250°
2026-05-07 07:33 50.04359 8.58050 371 ft 2 kts 250°
2026-05-07 07:33 50.04326 8.57909 370 ft 42 kts 250°
2026-05-07 07:33 50.04137 8.57117 369 ft 111 kts 249°
2026-05-07 07:34 50.03798 8.55700 392 ft 162 kts 252°
2026-05-07 07:34 50.03405 8.54052 856 ft 178 kts 252°
2026-05-07 07:34 50.02979 8.52242 1685 ft 177 kts 251°
2026-05-07 07:34 50.02225 8.50682 2334 ft 197 kts 217°
2026-05-07 07:35 50.00896 8.49763 2814 ft 220 kts 202°
2026-05-07 07:35 49.99364 8.49317 3544 ft 227 kts 173°
2026-05-07 07:35 49.97898 8.50200 4331 ft 231 kts 141°
2026-05-07 07:35 49.96874 8.52101 4680 ft 232 kts 117°
2026-05-07 07:36 49.96086 8.54288 5374 ft 231 kts 118°
2026-05-07 07:36 49.95286 8.56478 6191 ft 236 kts 117°
2026-05-07 07:36 49.94475 8.58761 6813 ft 248 kts 112°
2026-05-07 07:36 49.94128 8.61398 7462 ft 251 kts 90°
2026-05-07 07:37 49.94001 8.64149 8157 ft 262 kts 92°
2026-05-07 07:37 49.93818 8.67074 8591 ft 283 kts 101°
2026-05-07 07:37 49.92978 8.69879 9221 ft 292 kts 127°
2026-05-07 07:37 49.91852 8.72568 9838 ft 304 kts 116°
2026-05-07 07:38 49.90930 8.75561 10439 ft 314 kts 116°
2026-05-07 07:38 49.89914 8.78676 10772 ft 334 kts 117°
2026-05-07 07:38 49.88809 8.81957 11064 ft 353 kts 118°
2026-05-07 07:38 49.87632 8.85394 11470 ft 367 kts 118°
2026-05-07 07:39 49.86419 8.88894 12178 ft 370 kts 118°
2026-05-07 07:39 49.85193 8.92411 12934 ft 373 kts 118°
2026-05-07 07:39 49.83953 8.95957 13716 ft 374 kts 118°
2026-05-07 07:39 49.82704 8.99514 14370 ft 378 kts 118°
2026-05-07 07:40 49.81871 9.01889 14793 ft 380 kts 118°
2026-05-07 07:40 49.80601 9.05499 15451 ft 383 kts 118°
2026-05-07 07:40 49.79318 9.09144 16113 ft 387 kts 117°
2026-05-07 07:40 49.78021 9.12822 16727 ft 392 kts 117°
2026-05-07 07:41 49.76280 9.17750 17539 ft 397 kts 118°
2026-05-07 07:41 49.74954 9.21500 18192 ft 399 kts 118°
2026-05-07 07:41 49.73615 9.25280 18709 ft 402 kts 118°
2026-05-07 07:41 49.72703 9.27849 19065 ft 404 kts 118°
2026-05-07 07:42 49.71343 9.31676 19578 ft 408 kts 118°
2026-05-07 07:42 49.69969 9.35540 20050 ft 412 kts 118°
2026-05-07 07:42 49.68602 9.39378 20587 ft 414 kts 118°
2026-05-07 07:42 49.67208 9.43284 21073 ft 417 kts 118°
2026-05-07 07:43 49.65800 9.47222 21556 ft 420 kts 118°
2026-05-07 07:43 49.64385 9.51179 22072 ft 422 kts 118°
2026-05-07 07:43 49.62959 9.55157 22595 ft 425 kts 118°
2026-05-07 07:43 49.61523 9.59156 23032 ft 428 kts 118°
2026-05-07 07:44 49.60076 9.63180 23535 ft 430 kts 118°
2026-05-07 07:44 49.58613 9.67242 23901 ft 434 kts 118°
2026-05-07 07:44 49.57146 9.71310 24311 ft 436 kts 118°
2026-05-07 07:44 49.55668 9.75402 24685 ft 438 kts 118°
2026-05-07 07:45 49.54184 9.79503 25103 ft 440 kts 118°
2026-05-07 07:45 49.52637 9.83579 25487 ft 443 kts 124°
2026-05-07 07:45 49.50702 9.87286 25977 ft 444 kts 128°
2026-05-07 07:45 49.48749 9.91008 26331 ft 450 kts 128°
2026-05-07 07:46 49.46770 9.94770 26644 ft 453 kts 128°
2026-05-07 07:46 49.44782 9.98537 27047 ft 455 kts 128°
2026-05-07 07:46 49.42779 10.02326 27381 ft 458 kts 128°
2026-05-07 07:46 49.40769 10.06123 27730 ft 460 kts 128°
2026-05-07 07:47 49.38746 10.09938 28079 ft 462 kts 128°
2026-05-07 07:47 49.36710 10.13773 28419 ft 464 kts 128°
2026-05-07 07:47 49.34660 10.17626 28739 ft 467 kts 128°
2026-05-07 07:47 49.32629 10.21441 29103 ft 469 kts 128°
2026-05-07 07:48 49.30563 10.25315 29444 ft 471 kts 128°
2026-05-07 07:48 49.28481 10.29214 29756 ft 474 kts 129°
2026-05-07 07:48 49.26392 10.33118 30167 ft 473 kts 129°
2026-05-07 07:48 49.24310 10.36998 30580 ft 472 kts 131°
2026-05-07 07:49 49.22035 10.40616 30872 ft 471 kts 136°
2026-05-07 07:49 49.19703 10.44121 30989 ft 469 kts 136°
2026-05-07 07:49 49.17377 10.47592 30981 ft 467 kts 136°
2026-05-07 07:50 49.12726 10.54498 31000 ft 466 kts 136°
2026-05-07 07:50 49.08073 10.61391 31001 ft 467 kts 136°
2026-05-07 07:51 49.03431 10.68242 30999 ft 460 kts 138°
2026-05-07 07:51 48.98821 10.75022 30999 ft 461 kts 138°
2026-05-07 07:52 48.94196 10.81806 30993 ft 461 kts 138°
2026-05-07 07:52 48.89603 10.88536 30991 ft 462 kts 138°
2026-05-07 07:53 48.84975 10.95303 30977 ft 461 kts 138°
2026-05-07 07:53 48.80350 11.02048 30974 ft 458 kts 139°
2026-05-07 07:54 48.75763 11.08707 30959 ft 456 kts 140°
2026-05-07 07:54 48.71149 11.15381 30963 ft 459 kts 140°
2026-05-07 07:55 48.66537 11.22058 30965 ft 459 kts 137°
2026-05-07 07:55 48.64609 11.25923 30954 ft 465 kts 121°
2026-05-07 07:55 48.63366 11.30468 30978 ft 470 kts 111°
2026-05-07 07:56 48.61283 11.39861 30963 ft 471 kts 112°
2026-05-07 07:56 48.59263 11.49265 30968 ft 470 kts 112°
2026-05-07 07:57 48.57262 11.58670 30962 ft 471 kts 110°
2026-05-07 07:57 48.55879 11.68388 30960 ft 474 kts 106°
2026-05-07 07:58 48.54456 11.78105 30935 ft 474 kts 108°
2026-05-07 07:58 48.53013 11.87733 30967 ft 473 kts 108°
2026-05-07 07:59 48.51552 11.97418 30980 ft 473 kts 108°
2026-05-07 07:59 48.50083 12.07102 30981 ft 473 kts 108°
2026-05-07 08:00 48.48628 12.16783 30976 ft 473 kts 108°
2026-05-07 08:00 48.47172 12.26426 30980 ft 471 kts 109°
2026-05-07 08:01 48.45711 12.36044 30987 ft 470 kts 109°
2026-05-07 08:01 48.44243 12.45644 30975 ft 470 kts 109°
2026-05-07 08:02 48.42768 12.55240 30984 ft 470 kts 109°
2026-05-07 08:02 48.41283 12.64836 30982 ft 470 kts 110°
2026-05-07 08:03 48.39775 12.74407 30980 ft 468 kts 113°
2026-05-07 08:03 48.37704 12.83617 30984 ft 465 kts 116°
2026-05-07 08:04 48.35578 12.92789 30986 ft 464 kts 116°
2026-05-07 08:04 48.33442 13.01954 30950 ft 465 kts 117°
2026-05-07 08:05 48.31311 13.11056 30984 ft 464 kts 117°
2026-05-07 08:05 48.29014 13.20075 30985 ft 458 kts 122°
2026-05-07 08:06 48.26363 13.28783 30987 ft 459 kts 122°
2026-05-07 08:06 48.23749 13.37539 30991 ft 460 kts 121°
2026-05-07 08:07 48.21135 13.46297 30985 ft 460 kts 122°
2026-05-07 08:07 48.18514 13.55047 30990 ft 459 kts 122°
2026-05-07 08:08 48.15908 13.63720 30992 ft 459 kts 122°
2026-05-07 08:08 48.13281 13.72430 30993 ft 459 kts 122°
2026-05-07 08:09 48.10644 13.81143 30982 ft 459 kts 122°
2026-05-07 08:09 48.08001 13.89847 30987 ft 460 kts 122°
2026-05-07 08:10 48.05346 13.98557 30991 ft 459 kts 123°
2026-05-07 08:10 48.02688 14.07246 30992 ft 459 kts 123°
2026-05-07 08:11 48.00023 14.15929 30953 ft 459 kts 123°
2026-05-07 08:11 47.97370 14.24541 30990 ft 460 kts 123°
2026-05-07 08:12 47.94696 14.33195 30997 ft 459 kts 123°
2026-05-07 08:12 47.92017 14.41842 30980 ft 459 kts 123°
2026-05-07 08:12 47.90516 14.45966 30994 ft 445 kts 134°
2026-05-07 08:13 47.88677 14.49662 30953 ft 446 kts 135°
2026-05-07 08:13 47.85025 14.57134 30941 ft 448 kts 135°
2026-05-07 08:14 47.81329 14.64635 31001 ft 450 kts 135°